Content
SEND FEEDBACK

Daily
Averages
Monthly
Summary
United States of America

STATEN ISLAND, NEW YORK


Home > North America > United States > New York
Elevation: 46 meters     Latitude: 40 35N     Longitude: 074 09W

WEATHER
 
SELECT A DAY
Number of Records: 189,950;   Date Range: 1/1/95 - 9/21/14
 
SHARE

PRINT THIS DATA

[ ← Previous Day ]
WEATHER ALMANAC - 18 JANUARY, 2013
[ Next Day → ]
[ °F ]   °C
Weather ElementAverageHighLow
Temperature-1.3 °C0.6 °C (1:51 am)-2.8 °C (6:51 pm)
Dewpoint-12.5 °C-5.6 °C (1:51 am)-16.7 °C (1:51 pm)
Humidity44.3 %64 % (1:51 am)29 % (1:51 pm)
Barometer1028.1 hPa1032.5 hPa (6:51 pm)1018.3 hPa (1:51 am)
Wind Speed18 km/h35.2 km/h (7:51 am)
Wind Gust51.8 km/h (7:51 am)
Weather ElementAverage
Visibility16.1 km
Wind DirectionWSW (247.4 °)

Weather ElementTotal
Precipitation---
Heating Degree Days19.4 (Base 18.3)
Averaged from 23 records on 18 January, 2013
WEATHER CONDITIONS BREAKOUT
WIND DIRECTION BREAKOUT
WEATHER BY HOUR - 18 JANUARY, 2013
[ °F ]   °C
Local TimeTemperatureDewpointHumidityBarometerVisibilityWind DirectionWind SpeedGust SpeedPrecipitationEventsConditions
1:51 AM0.6 °C-5.6 °C64 %1018.3 hPa16.1 kmNNE (20°)20.4 km/hOvercast
2:51 AM-0.6 °C-7.2 °C61 %1019.3 hPa16.1 kmNorth (10°)20.4 km/hOvercast
3:51 AM-1.1 °C-8.3 °C59 %1019.3 hPa16.1 kmNNE (20°)14.8 km/hOvercast
4:51 AM-1.1 °C-8.3 °C59 %1020.7 hPa16.1 kmNorth (360°)9.3 km/hScattered Clouds
5:51 AM-1.1 °C-8.9 °C56 %1022.7 hPa16.1 kmNNW (340°)20.4 km/hMostly Cloudy
6:51 AM-1.7 °C-9.4 °C56 %1024.4 hPa16.1 kmNorth (350°)20.4 km/hOvercast
7:51 AM-2.2 °C-10.6 °C53 %1026.4 hPa16.1 kmNNW (330°)35.2 km/h51.8 km/hMostly Cloudy
8:51 AM-2 °C-13 °C43 %1028.1 hPa16.1 kmNNW (340°)25.9 km/h38.9 km/hSnowLight Snow
9:51 AM-1.7 °C-13.9 °C40 %1030.1 hPa16.1 kmNW (310°)25.9 km/h42.6 km/h0 mmScattered Clouds
10:51 AM-1.1 °C-15 °C35 %1030.8 hPa16.1 kmNNW (330°)24.1 km/hScattered Clouds
11:51 AM-0.6 °C-13.9 °C37 %1030.8 hPa16.1 kmWNW (300°)20.4 km/h35.2 km/hScattered Clouds
12:51 PM-0.6 °C-15 °C33 %1030.5 hPa16.1 kmWNW (300°)16.7 km/hPartly Cloudy
1:51 PM-0.6 °C-16.7 °C29 %1030.8 hPa16.1 kmNNW (340°)25.9 km/h38.9 km/hPartly Cloudy
2:51 PM-0.6 °C-16.1 °C31 %1030.8 hPa16.1 kmNNW (330°)14.8 km/h25.9 km/hPartly Cloudy
3:51 PM-0.6 °C-16.7 °C29 %1030.8 hPa16.1 kmNW (310°)16.7 km/hScattered Clouds
4:51 PM-1.7 °C-16.7 °C32 %1031.5 hPa16.1 kmWest (270°)16.7 km/hPartly Cloudy
5:51 PM-1.7 °C-16.1 °C33 %1032.2 hPa16.1 kmWSW (250°)13 km/hPartly Cloudy
6:51 PM-2.8 °C-15 °C39 %1032.5 hPa16.1 kmSW (220°)9.3 km/hPartly Cloudy
7:51 PM-2.2 °C-13.3 °C43 %1032.5 hPa16.1 kmSSW (200°)13 km/hPartly Cloudy
8:51 PM-1.7 °C-12.8 °C43 %1031.5 hPa16.1 kmSouth (180°)13 km/hPartly Cloudy
9:51 PM-2.2 °C-11.7 °C49 %1031.8 hPa16.1 kmSSW (210°)11.1 km/hPartly Cloudy
10:51 PM-2 °C-12 °C47 %1030.8 hPa16.1 kmSouth (190°)13 km/hScattered Clouds
11:51 PM-1.7 °C-11.1 °C49 %1029.5 hPa16.1 kmSouth (180°)14.8 km/hScattered Clouds
Hourly data recorded from KEWR, located 0 kilometers away from Staten Island, New York







STORIES FROM OUR PARTNERS